[[{"header":{"parameterUnit":"m.s-1","parameterCategory":1,"la1":30.2991,"la2":30.254,"lo1":-89.0895,"lo2":-89.0444,"dy":0.0017,"dx":0.0017,"nx":28,"ny":28,"refTime":"2025-03-05T03:00:00:Z","depth":0,"parameterNumber":2,"parameterNumberName":"U-component_of_WINDS"},"data":[0,0,0,0,0,0,0,0,0,0,0,0,0,0,0,0,0,0,0,0,0,0,0,0,0,0,0,0,0,0,0,0,0,0,0,0,0,0,0,0,0,0,0,0,0,0,0,0,0,0,0,0,0,0,0,0,0,0,1.0709,1.071,0,1.0753,1.0754,1.0754,1.0731,1.073,1.0729,1.0728,1.0774,1.0776,1.0779,0,0,0,0,0,0,0,0,0,0,0,0,0,1.0603,1.0605,1.0709,1.071,1.071,1.0753,1.0754,1.0755,1.0732,1.073,1.0729,1.0727,1.0773,1.0776,1.0779,0,0,0,0,0,0,0,0,0,0,0,0,0,1.0649,1.0606,1.0709,1.0704,1.0704,1.0753,1.0754,1.0755,1.0732,1.073,1.0728,1.0727,1.0772,1.0776,1.0779,1.0836,0,0,1.079,1.0791,0,0,0,0,0,0,0,0,1.0646,1.0653,1.0704,1.0704,1.0704,1.0735,1.0734,1.0782,1.0732,1.0721,1.0728,1.0726,1.0763,1.0767,1.0779,1.0838,1.084,1.079,1.0792,1.0794,1.0795,0,0,0,0,0,0,0,1.0643,1.065,1.0727,1.0705,1.0705,1.0699,1.0703,1.0743,1.0751,1.0722,1.0721,1.0726,1.0762,1.0776,1.078,1.0841,1.079,1.0793,1.0795,1.0797,1.0946,1.0948,0,0,0,0,0,0,1.064,1.0648,1.0725,1.0728,1.067,1.0702,1.0707,1.0727,1.0751,1.0753,1.0728,1.0725,1.0771,1.0776,1.0781,1.0847,1.0794,1.0797,1.0799,1.0945,1.0947,1.0949,0,0,0,0,0,0,1.0638,1.0647,1.0723,1.0688,1.0697,1.0706,1.0728,1.0729,1.0742,1.0755,1.0756,1.074,1.0769,1.0776,1.0822,1.0849,1.0799,1.0802,1.0942,1.0945,1.0948,1.0981,0,0,0,0,0,0,1.0635,1.0647,1.0669,1.0688,1.0699,1.0764,1.073,1.0731,1.0748,1.0745,1.0767,1.0769,1.0768,1.0817,1.0825,1.0853,1.0805,1.094,1.0944,1.0947,1.0978,1.0985,1.0991,0,0,0,0,0,1.0631,1.0677,1.067,1.068,1.0727,1.0765,1.0771,1.077,1.0751,1.0772,1.078,1.0768,1.0845,1.0822,1.0831,1.086,1.0938,1.0943,1.0947,1.0975,1.0983,1.0991,0,0,0,0,0,0,1.0662,1.068,1.0672,1.0726,1.0744,1.0761,1.0789,1.078,1.0805,1.0801,1.0798,1.0803,1.085,1.086,1.0834,1.0915,1.0888,1.0895,1.0906,1.0915,1.0921,1.0917,1.0807,0,0,0,0,0,1.0675,1.0705,1.0719,1.0765,1.0774,1.078,1.0797,1.0794,1.0813,1.0821,1.0832,1.0851,1.0879,1.0898,1.0925,1.0979,1.0982,1.1004,1.101,1.1015,1.102,1.1047,1.1056,1.0963,1.0963,1.0963,0,0,1.0702,1.0715,1.0735,1.0771,1.0785,1.0815,1.0787,1.0821,1.0843,1.0826,1.0869,1.0878,1.0899,1.0948,1.0971,1.0958,1.1047,1.1021,1.1025,1.1027,1.1052,1.1061,1.1069,1.0966,1.0965,1.0965,0,0,1.0766,1.078,1.0818,1.0832,1.0853,1.0857,1.0866,1.0884,1.0889,1.0932,1.0919,1.0945,1.0995,1.1009,1.1023,1.109,1.1078,1.1099,1.1133,1.1159,1.1166,1.1172,1.1194,1.1202,1.1104,1.1104,1.1104,0,1.0797,1.0842,1.0839,1.0873,1.0889,1.0875,1.0912,1.0926,1.0955,1.0966,1.0951,1.101,1.1024,1.1075,1.1091,1.1104,1.1113,1.1096,1.1165,1.1172,1.1178,1.1198,1.1206,1.1106,1.1106,1.1106,1.1106,0,1.0877,1.0909,1.0937,1.0964,1.0983,1.1019,1.1021,1.104,1.1036,1.104,1.1083,1.1098,1.1126,1.1138,1.1135,1.1189,1.1179,1.1165,1.1138,1.1189,1.1207,1.1216,1.1109,1.1109,1.1108,1.1107,0,0,1.0962,1.0985,1.0996,1.1006,1.1027,1.1051,1.1086,1.1113,1.1128,1.1149,1.1176,1.1217,1.1203,1.1218,1.1216,1.124,1.1288,1.1222,1.1222,1.1232,1.1345,1.1354,1.1364,1.1282,1.1283,1.1284,1.1343,0,1.1025,1.1085,1.1083,1.1138,1.1166,1.1152,1.1182,1.1197,1.1202,1.1226,1.1231,1.1259,1.124,1.1249,1.1271,1.1278,1.1311,1.1274,1.1306,1.1307,1.1299,1.1374,1.1384,1.1439,1.135,1.1352,1.1353,0,1.1107,1.1128,1.1186,1.1201,1.1212,1.1239,1.1262,1.1285,1.1302,1.1304,1.132,1.1314,1.1347,1.132,1.1366,1.134,1.1354,1.1359,1.1361,1.1362,1.1331,1.1375,1.1456,1.1464,1.1365,1.1364,1.1363,0,1.116,1.1203,1.1242,1.1252,1.1271,1.129,1.1298,1.1314,1.1329,1.1349,1.1359,1.1383,1.1396,1.1415,1.1414,1.1395,1.1459,1.1433,1.146,1.146,1.1473,1.1472,1.1555,1.1485,1.1485,1.1485,1.1485,0,1.1229,1.1265,1.1266,1.129,1.1328,1.1325,1.1363,1.137,1.1383,1.1408,1.1398,1.1421,1.142,1.1443,1.1444,1.1479,1.1486,1.1487,1.1486,1.1487,1.1486,1.1494,1.149,1.1487,1.1487,1.1486,1.1486,0,1.1294,1.1297,1.1338,1.1352,1.1356,1.1383,1.1395,1.1417,1.142,1.1451,1.1458,1.1464,1.149,1.1492,1.1523,1.1523,1.1566,1.1562,1.156,1.1558,1.1584,1.1581,1.1674,1.1685,1.161,1.161,1.1611,0,1.1337,1.1364,1.138,1.1395,1.1404,1.1429,1.1444,1.1443,1.1458,1.1478,1.1498,1.1523,1.1543,1.1586,1.1592,1.1615,1.1611,1.1641,1.1614,1.1613,1.1608,1.1606,1.1607,1.1646,1.1647,1.1648,1.1648,0,1.1413,1.1412,1.1434,1.1456,1.1474,1.1492,1.1508,1.1521,1.1521,1.1539,1.1565,1.1581,1.1611,1.1636,1.1658,1.1666,1.1657,1.1657,1.1664,1.1664,1.166,1.166,1.1572,1.1655,1.1654,1.1654,1.1653,1.1653,1.1467,1.1488,1.1502,1.1526,1.1538,1.1553,1.1573,1.1579,1.1601,1.1625,1.1622,1.1651,1.1665,1.1694,1.1704,1.1725,1.1715,1.1726,1.1728,1.173,1.1732,1.1658,1.173,1.173,1.173,1.1729,1.1729,0,1.1539,1.1547,1.157,1.1591,1.161,1.16,1.1616,1.1632,1.1657,1.1671,1.1691,1.172,1.1743,1.1751,1.1773,1.1789,1.1785,1.1795,1.1792,1.1794,1.1741,1.1732,1.1797,1.1797,1.1797,1.1797,1.1797,1.1797,1.1579,1.1615,1.1615,1.1656,1.1663,1.169,1.1701,1.1714,1.1724,1.1757,1.1776,1.1781,1.1792,1.1814,1.1834,1.1836,1.1844,1.1855,1.1854,1.1805,1.1798,1.1791,1.1782,1.1857,1.1857,1.1905,1.1905,1.1906]},{"header":{"parameterUnit":"m.s-1","parameterCategory":1,"la1":30.2991,"la2":30.254,"lo1":-89.0895,"lo2":-89.0444,"dy":0.0017,"dx":0.0017,"nx":28,"ny":28,"refTime":"2025-03-05T03:00:00:Z","depth":0,"parameterNumber":3,"parameterNumberName":"V-component_of_WINDS"},"data":[0,0,0,0,0,0,0,0,0,0,0,0,0,0,0,0,0,0,0,0,0,0,0,0,0,0,0,0,0,0,0,0,0,0,0,0,0,0,0,0,0,0,0,0,0,0,0,0,0,0,0,0,0,0,0,0,0,0,2.5001,2.5,0,2.4945,2.4944,2.4943,2.488,2.488,2.4879,2.4878,2.482,2.4819,2.4818,0,0,0,0,0,0,0,0,0,0,0,0,0,2.5052,2.5051,2.5001,2.5,2.4999,2.4945,2.4944,2.4943,2.4881,2.4879,2.4878,2.4877,2.482,2.4819,2.4818,0,0,0,0,0,0,0,0,0,0,0,0,0,2.5016,2.5051,2.5001,2.4962,2.4957,2.4945,2.4944,2.4943,2.4881,2.4879,2.4878,2.4877,2.482,2.4819,2.4818,2.484,0,0,2.4815,2.4815,0,0,0,0,0,0,0,0,2.5018,2.5014,2.4968,2.4964,2.496,2.4918,2.4941,2.4908,2.4881,2.491,2.4878,2.4876,2.4854,2.485,2.4842,2.4837,2.4834,2.4815,2.4814,2.4814,2.4814,0,0,0,0,0,0,0,2.5021,2.5016,2.4978,2.4967,2.4962,2.4946,2.494,2.4934,2.489,2.4907,2.4903,2.4897,2.4851,2.4843,2.484,2.4834,2.4815,2.4814,2.4814,2.4813,2.484,2.4841,0,0,0,0,0,0,2.5029,2.5019,2.498,2.4977,2.4986,2.4946,2.4939,2.4933,2.489,2.4882,2.4898,2.4894,2.4846,2.4842,2.4838,2.4858,2.4814,2.4813,2.4812,2.4838,2.484,2.4841,0,0,0,0,0,0,2.5031,2.5027,2.4983,2.4997,2.499,2.4947,2.4941,2.4932,2.4925,2.4883,2.4875,2.4899,2.4845,2.484,2.4839,2.4855,2.4813,2.4812,2.4837,2.4839,2.4841,2.49,0,0,0,0,0,0,2.5032,2.5027,2.5036,2.4997,2.4989,2.4985,2.4942,2.4932,2.4923,2.4917,2.4881,2.4874,2.4843,2.4841,2.4838,2.4853,2.4811,2.4835,2.4838,2.484,2.4896,2.4903,2.491,0,0,0,0,0,2.5035,2.5055,2.5036,2.5032,2.4999,2.4986,2.4982,2.4946,2.4925,2.4932,2.4905,2.4875,2.4854,2.4841,2.4838,2.4853,2.4834,2.4837,2.484,2.4893,2.4902,2.4909,0,0,0,0,0,0,2.5097,2.5049,2.5028,2.5037,2.5016,2.4976,2.4984,2.4957,2.4942,2.4937,2.4893,2.4885,2.4889,2.4871,2.4858,2.4869,2.484,2.4842,2.4881,2.4889,2.4896,2.49,2.481,0,0,0,0,0,2.5111,2.5106,2.5065,2.5076,2.5067,2.5028,2.5021,2.4995,2.4971,2.4962,2.4935,2.4913,2.4901,2.4895,2.4882,2.4893,2.4883,2.4901,2.4908,2.4914,2.4916,2.4918,2.4925,2.4851,2.4851,2.4851,0,0,2.5142,2.5115,2.5114,2.5088,2.5069,2.5063,2.502,2.5017,2.5011,2.4962,2.4959,2.4938,2.4911,2.4916,2.4917,2.49,2.4934,2.4918,2.4923,2.4922,2.4922,2.4929,2.4935,2.4853,2.4853,2.4853,0,0,2.5193,2.5174,2.518,2.5161,2.5133,2.5106,2.5108,2.5071,2.5055,2.5052,2.5014,2.5007,2.4988,2.4969,2.4957,2.5,2.4971,2.4997,2.5032,2.5035,2.504,2.5045,2.5058,2.5064,2.5,2.5,2.5,0,2.5234,2.5225,2.5187,2.5184,2.5173,2.5128,2.5133,2.5117,2.5085,2.5078,2.5061,2.5034,2.5013,2.5011,2.5022,2.5014,2.5013,2.5,2.5043,2.5047,2.5051,2.5063,2.5068,2.5003,2.5003,2.5002,2.5002,0,2.5275,2.5269,2.5278,2.5248,2.5237,2.5239,2.52,2.5195,2.5169,2.5144,2.514,2.5112,2.5092,2.509,2.5066,2.5084,2.5075,2.5051,2.502,2.5062,2.5072,2.5077,2.5008,2.5006,2.5005,2.5005,0,0,2.5364,2.5313,2.5316,2.5301,2.5266,2.526,2.5259,2.5238,2.5233,2.5213,2.5209,2.5194,2.517,2.5157,2.513,2.5132,2.5165,2.5107,2.5106,2.5117,2.518,2.5197,2.5203,2.5146,2.5147,2.5147,2.5182,0,2.5408,2.5403,2.5369,2.5374,2.5366,2.5322,2.5321,2.5298,2.5275,2.5264,2.5237,2.5226,2.5198,2.5189,2.5189,2.5161,2.5177,2.5158,2.514,2.514,2.5147,2.5209,2.5228,2.5262,2.5186,2.5187,2.5187,0,2.5458,2.544,2.5445,2.5407,2.5403,2.5402,2.538,2.5371,2.5344,2.5326,2.531,2.5279,2.5274,2.5246,2.5236,2.5225,2.5215,2.52,2.52,2.5196,2.5165,2.5204,2.5272,2.5276,2.5194,2.5193,2.5193,0,2.552,2.5497,2.5496,2.5485,2.5442,2.5442,2.5424,2.5396,2.5385,2.5365,2.5357,2.5337,2.5326,2.531,2.5274,2.5258,2.5268,2.5238,2.5252,2.5252,2.5255,2.5255,2.532,2.5252,2.5252,2.5252,2.5252,0,2.5571,2.5575,2.5523,2.5522,2.5524,2.5484,2.5487,2.5464,2.5439,2.5432,2.5393,2.5387,2.5341,2.5329,2.5301,2.5296,2.5292,2.5276,2.5268,2.5278,2.528,2.5271,2.5266,2.5253,2.5253,2.5253,2.5253,0,2.564,2.5605,2.5601,2.556,2.555,2.5553,2.5518,2.5515,2.5488,2.548,2.5475,2.5434,2.5418,2.538,2.5355,2.5336,2.5337,2.5324,2.5346,2.5341,2.5356,2.5354,2.5416,2.542,2.5352,2.5353,2.5353,0,2.5674,2.5675,2.5635,2.5628,2.5611,2.56,2.5589,2.5549,2.5538,2.5506,2.5506,2.5487,2.547,2.5446,2.5412,2.5392,2.5377,2.5399,2.5373,2.5383,2.5374,2.5374,2.5372,2.5405,2.5406,2.5407,2.5407,0,2.5737,2.572,2.5705,2.5684,2.5672,2.5654,2.5633,2.5629,2.5584,2.5574,2.5557,2.5543,2.5516,2.5497,2.547,2.545,2.542,2.5416,2.5417,2.5427,2.5439,2.543,2.536,2.5414,2.5414,2.5413,2.5413,2.5412,2.5788,2.5786,2.5757,2.5742,2.5722,2.5703,2.5698,2.567,2.5656,2.5631,2.5608,2.5593,2.5563,2.5525,2.5507,2.5493,2.5478,2.5481,2.5482,2.5483,2.5486,2.5443,2.5488,2.5488,2.5488,2.5488,2.5487,0,2.5847,2.5826,2.5812,2.5784,2.5772,2.5746,2.5721,2.5712,2.5699,2.5675,2.5658,2.5637,2.5618,2.5583,2.556,2.5555,2.5541,2.555,2.5549,2.5544,2.5502,2.5502,2.5562,2.5562,2.5562,2.5562,2.5562,2.5562,2.5876,2.5872,2.5851,2.5836,2.5814,2.5799,2.5787,2.5769,2.5749,2.5727,2.5711,2.5689,2.5659,2.5633,2.5613,2.5603,2.5596,2.5609,2.5595,2.5555,2.5548,2.5541,2.5541,2.5608,2.5608,2.5638,2.5638,2.5638]}]]